Simultaneous Nadir Overpasses (SNOs) Predictions

Prediction of SNOs between AQUA and GOES-15 Satellite Orbit:

Table of predicted SNOs for the next 14.0 days since TLE Epoch: 4/8/2022
Index Date Time (AQUA) AQUA Lat,Lon GOES-15 Lat,Lon Distance(km) Time Diff (sec)
1 04/08/2022 22:13:49 -0.26,-129.07 -0.12,-128.41 74.40 80
2 04/10/2022 22:01:27 0.38,-126.06 -0.12,-128.41 267.05 80
3 04/11/2022 10:22:39 0.74,-131.19 0.12,-128.39 319.05 80
4 04/13/2022 10:10:17 0.08,-128.19 0.13,-128.38 22.16 80
5 04/15/2022 09:57:54 -0.55,-125.18 0.13,-128.37 363.07 80
6 04/15/2022 22:19:15 -0.57,-130.35 -0.12,-128.38 225.26 80
7 04/17/2022 22:06:52 0.09,-127.34 -0.12,-128.36 115.09 80
8 04/18/2022 10:28:04 1.02,-132.48 0.12,-128.34 470.95 80
9 04/19/2022 21:54:28 0.71,-124.32 -0.13,-128.33 454.69 80
10 04/20/2022 10:15:41 0.34,-129.48 0.12,-128.31 131.70 80
11 04/22/2022 10:03:16 -0.24,-126.45 0.12,-128.27 207.12 80
